Regional Weather Roundup
Issued by NWS

Home | Current Version | Previous Version | Graphics & Text | Print | Product List | Glossary On
Versions: 1 2 3 4 5 6 7 8 9 10 11 12 13 14 15 16 17 18 19 20 21 22 23 24 25 26 27 28 29 30 31 32 33 34 35 36 37 38 39 40 41 42 43 44 45 46 47 48 49 50
000
ASUS43 KLSX 211959
RWRMO

WEATHER SUMMARY FOR MISSOURI
NATIONAL WEATHER SERVICE SPRINGFIELD MO
300 PM CDT MON JUL 21 2014

NOTE: "FAIR" INDICATES FEW OR NO CLOUDS BELOW 12,000 FEET WITH NO
       SIGNIFICANT WEATHER AND/OR OBSTRUCTIONS TO VISIBILITY.
       CURRENT SKY AND/OR WEATHER CONDITIONS ARE NOT AVAILABLE FOR
       CHILLICOTHE AND FARMINGTON.

MOZ001>031-035>038-043-044-053-054-212100-
...NORTHERN AND WESTERN MISSOURI...

CITY           SKY/WX    TMP DP  RH WIND       PRES   REMARKS
KANSAS CTY INT PTSUNNY   91  77  63 S14       29.97F HX 104
KANSAS C DTWN  SUNNY     93  75  55 S15       29.96F HX 104
LEE`S SUMMIT   SUNNY     89  74  60 S13G22    29.99F HX  98
ST JOSEPH      MOSUNNY   90  76  63 S17       29.94F HX 101
CHILLICOTHE      N/A     89  75  63 S13G18    29.98F HX  99
KIRKSVILLE     MOSUNNY   87  74  64 S16       30.02S HX  95

$$
MOZ066>068-077>081-088>096-101>105-212100-
...SOUTHWEST MISSOURI...

CITY           SKY/WX    TMP DP  RH WIND       PRES   REMARKS
SPRINGFIELD    SUNNY     86  68  54 SW7       30.07F
JOPLIN         SUNNY     91  69  48 S8        30.05F HX  96

$$
MOZ032>034-039>042-045>050-055>058-069>072-212100-
...CENTRAL MISSOURI...

CITY           SKY/WX    TMP DP  RH WIND       PRES   REMARKS
COLUMBIA       SUNNY     87  69  54 S12       30.05F HX  91
JEFFERSON CITY SUNNY     87  67  51 VRB6      30.04F HX  90
ROLLA          SUNNY     87  63  44 S8        30.07F
SEDALIA        MOSUNNY   90  74  59 S12       30.04F HX  99
OSAGE BEACH    SUNNY     90  66  45 S3        30.05F HX  92

$$
MOZ051-052-059>065-212100-
...EAST CENTRAL MISSOURI...

CITY           SKY/WX    TMP DP  RH WIND       PRES   REMARKS
ST LOUIS INTL  MOSUNNY   88  65  46 S9        30.07F HX  90
SPIRIT OF STL  MOSUNNY   88  63  43 SW9       30.05F
ST CHARLES     MOSUNNY   87  66  49 SE7       30.05F

$$
MOZ072>076-082>087-097>100-106>115-212100-
...SOUTH CENTRAL AND SOUTHEAST MISSOURI...

CITY           SKY/WX    TMP DP  RH WIND       PRES   REMARKS
CAPE GIRARDEAU MOSUNNY   84  65  52 SE3       30.07F
FARMINGTON     MOSUNNY   82  64  54 SE9       30.11F
POPLAR BLUFF   SUNNY     85  62  46 CALM      30.07F
WEST PLAINS    MOSUNNY   82  65  56 SE3       30.12F

$$



USA.gov is the U.S. government's official web portal to all federal, state and local government web resources and services.